Location: Eaton
(41.3139°N, 82.0207°W)
Time: 04:58:32
(UTC+00:00)

Daily predictions for brighter satellites

Satellite Brightness Start Highest point End
(mag) Time Altitude Azimuth Time Altitude Azimuth Time Altitude Azimuth
CENTAUR R/B 2.4 01:28:06 10° SSW 01:33:47 77° ESE 01:40:36 10° NE
Cosmos 1624 Rocket 4.1 01:30:57 10° SSW 01:36:16 86° ESE 01:41:36 10° NNE
Cosmos 292 Rocket 4.2 01:38:51 10° S 01:43:23 42° ESE 01:47:55 10° NNE
Cosmos 1707 3.6 01:40:00 10° SSE 01:43:26 31° E 01:46:54 10° NNE
Meteor 2-10 4.0 01:40:20 10° N 01:45:22 64° E 01:50:28 10° SSE
Meteor 1-22 Rocket 4.3 01:39:51 10° N 01:45:48 85° E 01:51:28 10° S
Okean 2 Rocket 3.8 01:47:11 10° NNW 01:51:37 57° W 01:56:02 10° S
Cosmos 1605 Rocket 4.1 01:47:52 10° N 01:54:14 65° E 02:00:31 10° SSE
Cosmos 2285 Rocket 4.0 01:50:34 10° S 01:56:57 73° ESE 02:03:23 10° NNE
FALCON 9 DEB 3.7 01:54:30 10° SSW 01:57:37 34° SE 02:00:46 10° ENE
Cosmos 1400 Rocket 3.8 01:54:11 10° NNW 01:57:53 44° W 02:01:33 10° SSW
Cosmos 1953 4.2 01:57:01 10° NNE 01:59:46 17° ENE 02:02:13 11° ESE
Cosmos 1452 Rocket 3.8 01:55:36 10° S 02:00:36 46° ESE 02:05:38 10° NNE
Cosmos 2263 Rocket 2.3 01:55:21 10° NNW 02:01:05 87° WSW 02:06:47 10° SSE
Resurs 01 Rocket 1.6 01:56:46 10° SSE 02:01:10 75° ENE 02:05:34 10° N
Cosmos 2151 Rocket 4.2 01:56:55 10° NNW 02:01:14 57° W 02:05:31 10° S
Cosmos 2056 Rocket 4.4 02:00:50 10° SW 02:05:53 53° WNW 02:11:04 10° N
Terra 3.8 02:03:21 10° E 02:06:03 15° ENE 02:08:46 10° NNE
IGS 5A 3.4 02:02:07 10° SSE 02:06:16 81° ENE 02:10:27 10° N
Lacrosse 5 2.1 02:04:22 10° NW 02:09:25 67° NE 02:13:41 15° SE
In-Cosmos 22 4.3 02:05:28 10° SSE 02:10:32 49° E 02:15:37 10° NNE
SPOT 1/Viking Rocket 3.8 02:06:53 12° SE 02:11:24 53° ENE 02:16:25 10° N
Cosmos 1626 4.0 02:10:37 13° ESE 02:11:46 14° E 02:13:50 10° NE
Cosmos 1975 Rocket 3.7 02:09:40 13° SSE 02:13:05 35° E 02:17:05 10° NNE
Cosmos 2333 Rocket 3.7 02:14:46 14° SE 02:16:59 18° E 02:20:39 10° ENE
MetOp-B 4.1 02:13:57 12° SSE 02:18:54 76° ENE 02:24:16 10° N
Spot 2 Rocket 4.0 02:18:25 16° SE 02:22:11 46° ENE 02:27:01 10° N
KORONAS-FOTON 4.4 02:21:34 18° SSE 02:23:56 38° E 02:27:28 10° NNE
ERS-1 Rocket 3.8 02:24:37 17° SE 02:27:53 35° ENE 02:32:27 10° N
ATLAS CENTAUR R/B 3.9 02:28:45 10° N 02:31:11 14° NE 02:33:40 10° ENE
Cosmos 2219 Rocket 3.6 02:29:35 17° ESE 02:31:16 19° E 02:35:12 10° NE
Landsat 7 4.2 02:29:04 11° S 02:33:36 62° W 02:38:20 10° NNW
Cosmos 1470 3.9 02:34:23 10° NNW 02:38:08 41° W 02:41:52 10° SSW
NOSS 3-2 (C) 4.4 02:33:00 10° WSW 02:38:25 48° NW 02:44:37 10° NNE
SPOT 3 Rocket 4.0 02:33:59 11° S 02:38:54 57° W 02:44:01 10° NNW
ARIANE 5 R/B 2.9 02:36:14 22° SE 02:38:54 56° ENE 02:43:18 10° N
Cosmos 1674 2.5 02:41:23 22° S 02:43:41 70° E 02:47:23 10° NNE
ATLAS 3B R/B 3.1 02:39:16 13° S 02:44:21 36° ESE 02:50:20 10° NE
Cosmos 1741 Rocket 4.1 02:40:06 10° NNW 02:45:21 67° ENE 02:48:30 24° SE
CZ-2C R/B 4.2 02:41:21 10° N 02:46:05 64° WNW 02:50:47 10° SSW
Cosmos 1315 Rocket 4.1 02:46:14 10° NNW 02:50:04 37° W 02:53:31 12° SSW
SL-16 R/B 3.2 02:46:08 10° SW 02:51:36 49° WNW 02:57:06 10° NNE
Cosmos 2123 Rocket 4.5 02:48:01 22° SSE 02:51:36 43° E 02:57:31 10° NNE
Cosmos 2360 Rocket 2.1 02:47:05 10° SSW 02:52:43 79° ESE 02:58:23 10° NNE
Cosmos 2322 Rocket 2.8 02:48:36 10° SW 02:54:13 60° WNW 02:59:52 10° NNE
Cosmos 1300 4.4 02:51:49 10° NNE 02:54:37 19° ENE 02:55:23 18° E
H-2A R/B 4.2 02:54:16 10° NNE 02:57:59 33° E 02:58:45 31° ESE
Cosmos 1544 Rocket 3.9 02:53:49 10° N 02:58:10 49° E 02:59:55 31° SE
Cosmos 1726 4.3 02:58:15 10° NW 03:01:01 21° W 03:03:47 10° SW
Cosmos 1455 Rocket 3.1 02:58:41 10° N 03:03:09 85° W 03:05:24 29° S
Meteor 1-16 Rocket 4.1 02:58:50 10° N 03:04:20 88° W 03:07:26 26° S
Cosmos 2100 Rocket 4.0 02:58:28 10° N 03:04:53 89° E 03:08:59 24° S
COSMOS 2428 3.5 03:06:54 28° SE 03:08:26 33° ESE 03:13:29 10° NE
USA 215 3.4 03:02:56 10° ENE 03:09:13 48° SE 03:15:29 10° SSW
Cosmos 2322 3.9 03:08:15 27° S 03:11:03 50° ESE 03:16:31 10° NE
BREEZE-M DEB (TANK) 2.2 03:08:17 10° NW 03:11:09 51° NNE 03:11:14 50° NE
Cosmos 1340 2.9 03:10:39 44° SE 03:11:16 49° E 03:14:55 10° NNE
Cosmos 1908 3.3 03:09:35 10° NNW 03:13:28 74° W 03:14:50 38° S
Lacrosse 5 rocket 1.0 03:12:44 10° SW 03:16:26 82° NW 03:20:03 10° NE
Cosmos 405 3.7 03:13:36 10° N 03:16:50 37° ENE 03:17:02 36° E
Cosmos 2278 Rocket 4.2 03:16:34 10° N 03:20:17 18° NE 03:23:55 10° E
Cosmos 1110 Rocket 4.2 03:15:27 11° SSW 03:20:25 69° WNW 03:25:37 10° NNE
Cosmos 2173 Rocket 4.2 03:17:43 10° NNW 03:24:04 70° W 03:28:00 25° S
Cosmos 2016 Rocket 3.9 03:20:54 10° N 03:27:02 82° E 03:29:58 33° SSE
Cosmos 1536 Rocket 3.5 03:26:46 45° SSE 03:28:01 68° E 03:32:28 10° NNE
Cosmos 968 Rocket 4.5 03:27:04 10° N 03:31:44 34° ENE 03:33:30 27° ESE
Cosmos 1844 Rocket 2.7 03:26:16 10° NNW 03:31:57 76° WSW 03:34:17 37° S
SPOT 5 3.4 03:30:02 29° SSW 03:32:31 58° W 03:37:27 10° NNW
Cosmos 1900 4.4 03:29:08 10° NNW 03:34:02 68° ENE 03:35:33 42° SE
Meteor 2-5 Rocket 3.7 03:32:04 37° SSE 03:34:12 67° E 03:39:45 10° NNE
Cosmos 1953 3.6 03:32:33 10° NNW 03:36:14 34° W 03:37:53 24° SW
Cosmos 1725 Rocket 3.9 03:32:25 10° N 03:38:38 86° E 03:41:20 36° S
Cosmos 1025 Rocket 3.9 03:37:24 23° SW 03:39:50 45° WNW 03:44:03 10° N
SL-14 R/B 3.5 03:39:12 44° SSW 03:40:20 69° W 03:44:22 10° N
Terra 2.1 03:41:40 39° SSW 03:43:16 62° W 03:48:01 10° NNW
Cosmos 1626 3.6 03:45:06 22° WSW 03:46:40 32° WNW 03:50:01 10° NNW
FALCON 9 DEB 4.3 03:51:56 32° NE 03:51:56 32° NE 03:53:47 10° NE
Cosmos 2228 3.7 03:47:15 10° N 03:51:26 41° ENE 03:51:51 40° E
Lacrosse 5 3.5 03:48:15 10° WNW 03:51:57 20° WSW 03:52:53 19° SW
Cosmos 1461 3.5 03:52:14 10° NW 03:56:09 41° WSW 03:56:19 40° WSW
FALCON 9 DEB 4.4 04:01:02 32° NNE 04:01:02 32° NNE 04:02:57 10° NE
Cosmos 2333 Rocket 2.5 03:56:42 21° SW 04:00:38 66° WNW 04:06:22 10° NNE
BREEZE-M DEB (TANK) 3.5 03:48:18 10° SW 04:02:11 70° SSE 04:05:57 10° ENE
DNEPR-1 R/B 3.4 03:58:46 10° NNW 04:03:00 79° ENE 04:03:30 68° ESE
ATLAS CENTAUR R/B 1.4 04:06:10 10° NW 04:10:35 86° WSW 04:10:56 76° SSE
SL-8 R/B 3.5 04:08:26 10° WNW 04:13:15 81° SSW 04:13:41 72° SSE
Cosmos 2219 Rocket 2.6 04:11:14 23° SW 04:14:42 59° WNW 04:20:19 10° NNE
Cosmos 1844 4.5 04:11:18 10° NW 04:16:26 39° WSW 04:17:50 33° SW
Cosmos 2058 Rocket 4.3 04:13:14 10° NNE 04:17:10 30° ENE 04:17:22 30° E
Cosmos 389 Rocket 3.2 04:15:58 10° N 04:18:38 48° NNE 04:18:38 48° NNE
Meteor 1-24 Rocket 4.0 04:19:34 37° SW 04:21:28 58° WNW 04:26:50 10° N
Meteor 2-10 Rocket 3.3 04:16:28 10° N 04:21:34 87° W 04:22:19 66° S
Cosmos 1455 3.2 04:18:59 10° N 04:22:07 38° ENE 04:22:07 38° ENE
SL-16 R/B 4.0 04:25:54 17° E 04:25:54 17° E 04:28:57 10° ENE
ATLAS CENTAUR R/B 3.3 04:26:30 42° ESE 04:26:39 42° ESE 04:35:48 10° NE
Cosmos 1726 Rocket 3.6 04:22:23 10° N 04:26:50 64° E 04:26:54 64° E
Spot 4 3.7 04:28:51 69° SE 04:29:21 78° ENE 04:34:09 10° N
Cosmos 2237 Rocket 2.3 04:29:29 54° SE 04:29:58 55° ESE 04:35:27 10° NNE
Cosmos 1300 4.3 04:27:01 10° NNW 04:30:14 26° W 04:30:18 26° W
Cosmos 1867 3.7 04:28:06 10° NNW 04:33:36 70° NE 04:34:47 53° ESE
ATLAS 3B R/B 3.5 04:28:37 10° WSW 04:34:52 46° NW 04:41:20 10° NNE
Cosmos 1892 Rocket 3.5 04:40:55 84° NE 04:40:55 84° NE 04:45:15 10° N
Cosmos 1606 Rocket 3.6 04:36:28 10° NNW 04:40:55 68° W 04:40:57 68° W
Cosmos 1346 Rocket 3.6 04:41:09 43° W 04:41:15 43° WNW 04:45:06 10° N
ALOS 2 2.9 04:41:22 57° ENE 04:41:25 57° ENE 04:45:44 10° N
SJ 16-02 3.9 04:44:16 10° NNE 04:46:09 12° ENE 04:47:52 10° E
Meteor 1-21 Rocket 4.2 04:46:49 58° SE 04:47:32 64° E 04:53:09 10° NNE
Cosmos 1184 Rocket 4.5 04:49:34 32° NNE 04:49:34 32° NNE 04:51:26 10° NNE
Cosmos 967 Rocket 4.4 04:43:04 10° NW 04:49:25 73° WSW 04:50:46 56° S
SL-4 R/B 3.6 04:52:00 25° ENE 04:52:00 25° ENE 04:53:39 10° ENE
COBE Rocket 3.8 04:50:14 74° SSE 04:50:43 90° WSW 04:55:45 10° NNW
USA 215 3.9 04:45:56 10° NE 04:52:15 54° NNW 04:58:33 10° WSW
COSMOS 2428 3.9 04:48:51 18° WSW 04:52:36 37° WNW 04:57:56 10° N
Cosmos 1891 Rocket 4.4 04:47:05 10° N 04:53:16 88° E 04:54:39 57° S
Lacrosse 5 rocket 4.2 04:53:58 10° WNW 04:56:01 14° NNW 04:58:04 10° N
Cosmos 1513 Rocket 4.3 04:52:54 10° N 04:59:01 87° W 05:00:16 59° S
NOSS 0 Rocket 4.1 04:57:14 39° SW 04:59:32 67° WNW 05:05:46 10° NNE
Cosmos 1486 Rocket 4.4 04:56:47 10° NNW 05:01:47 49° WSW 05:02:04 48° WSW
Cosmos 1072 Rocket 4.5 04:58:12 10° N 05:04:37 79° W 05:06:04 56° SSW
Cosmos 2278 Rocket 2.0 04:59:21 10° NNW 05:05:03 79° WSW 05:05:45 68° S
Cosmos 1703 3.8 05:11:13 58° N 05:11:13 58° N 05:14:28 10° N
Cosmos 1626 Rocket 3.9 05:11:52 58° ENE 05:11:52 58° ENE 05:15:54 10° NNE
Cosmos 1441 Rocket 3.8 05:13:00 55° N 05:13:00 55° N 05:16:05 10° N
Cosmos 1354 Rocket 3.9 05:09:43 10° NNW 05:15:04 79° WSW 05:15:27 74° SSW
Cosmos 1602 Rocket 4.1 05:18:27 49° ENE 05:18:27 49° ENE 05:22:26 10° NNE
GEOS 3 Rocket 4.4 05:20:24 38° WSW 05:20:24 38° WSW 05:25:08 10° NW
Cosmos 1328 4.4 05:21:45 53° NNE 05:21:45 53° NNE 05:24:49 10° N
Nimbus 7 Rocket 4.4 05:15:44 10° NNE 05:21:48 85° WNW 05:23:07 57° SSW
USA 267 3.2 05:21:42 40° SE 05:24:19 90° ENE 05:30:55 10° NW
Cosmos 1464 Rocket 4.4 05:27:40 10° NNW 05:33:47 51° W 05:35:08 44° SW
Okean 1-7 Rocket 4.4 05:35:55 42° W 05:35:57 42° WNW 05:40:12 10° N
Aureole 3 4.2 05:34:26 10° N 05:37:46 43° ENE 05:37:46 43° ENE
Cosmos 1607 3.9 05:37:02 10° NW 05:43:22 65° WSW 05:44:13 59° SSW
Cosmos 1634 Rocket 4.2 05:37:48 10° N 05:44:04 63° E 05:45:48 46° SE
Cosmos 1943 Rocket 3.0 05:42:49 10° NNW 05:48:07 45° ENE 05:50:14 31° ESE
Cosmos-2242 3.7 05:44:01 10° N 05:48:16 45° ENE 05:48:21 45° E
Cosmos 1825 4.4 05:52:57 17° E 05:52:57 17° E 05:55:07 10° NE
Cosmos 1812 Rocket 3.6 05:52:46 10° N 05:56:46 72° NW 05:56:46 72° NW
Resurs 1-4 Rocket 3.8 05:56:12 10° NE 06:00:05 20° E 06:01:20 19° ESE
Meteor 1-4 Rocket 4.3 05:59:29 10° NNW 06:01:22 26° NW 06:01:22 26° NW
USA 32 4.2 06:00:38 10° NNW 06:05:45 55° W 06:06:09 54° WSW
GP-B 3.5 06:02:38 10° N 06:06:48 51° WNW 06:06:48 51° WNW
SL-16 R/B 2.3 06:07:45 53° WSW 06:08:57 67° WNW 06:14:37 10° NNE
CZ-2D R/B 3.6 06:05:13 10° NE 06:09:20 23° E 06:10:33 21° ESE
USA 229 DEB 3.6 06:08:35 51° SSE 06:09:49 61° ESE 06:16:25 10° NE
USA 229 3.6 06:08:42 51° SSE 06:09:55 60° ESE 06:16:31 10° NE
Cosmos 2237 Rocket 4.0 06:11:17 15° W 06:14:23 23° NW 06:18:49 10° N
Cosmos 468 Rocket 4.3 06:16:01 48° SE 06:16:33 50° ESE 06:21:34 10° NNE
ADEOS II 4.4 06:14:55 10° ENE 06:17:11 13° E 06:19:25 10° ESE
Cosmos 2221 4.5 06:14:03 10° NNE 06:17:22 21° ENE 06:18:55 18° ESE
X-37B 3.0 06:21:11 19° ENE 06:21:11 19° ENE 06:22:11 10° ENE
Cosmos 1408 3.2 06:20:25 53° NE 06:20:25 53° NE 06:23:23 10° NNE
NOSS 3-1 (C) 3.2 06:18:54 54° WSW 06:20:07 74° NW 06:26:15 10° NNE
BREEZE-M DEB (TANK) 4.2 06:20:56 43° SSW 06:23:26 74° SE 06:48:48 10° ENE
Cosmos 1825 Rocket 3.5 06:24:06 76° W 06:24:07 76° W 06:28:35 10° N
BREEZE M DEB (TANK) 4.2 06:22:37 42° SW 06:25:03 73° SSE 07:05:37 10° ENE
BREEZE M DEB (TANK) 4.2 06:22:37 42° SW 06:25:03 73° SE 07:05:38 10° ENE
BREEZE M DEB (TANK) 4.2 06:22:37 42° SW 06:25:04 73° SE 07:05:38 10° ENE
BREEZE M DEB (TANK) 4.2 06:22:36 42° SW 06:25:04 73° SE 07:05:38 10° ENE
SJ 16-02 1.5 06:20:52 10° NNW 06:24:49 63° WNW 06:24:49 63° WNW
Cosmos 2369 Rocket 2.9 06:22:20 10° NNW 06:27:54 50° ENE 06:31:21 22° SE
NOSS 2-3 (E) 3.6 06:29:03 66° WNW 06:29:13 67° NW 06:33:50 10° NNE
NOSS 3-1 (A) 3.0 06:28:32 61° S 06:29:26 75° ESE 06:35:29 10° NE
SL-4 R/B 3.9 06:27:29 15° WNW 06:29:44 24° NNW 06:32:46 10° NE
Cosmos 1869 3.3 06:25:49 10° N 06:29:41 79° N 06:29:41 79° N
SL-16 R/B 3.6 06:26:24 16° SE 06:30:50 41° ENE 06:36:34 10° N
Meteor 2-13 Rocket 4.4 06:30:03 51° S 06:31:46 83° E 06:37:58 10° N
Cosmos 2142 Rocket 4.4 06:29:34 10° N 06:35:42 76° W 06:37:21 50° SSW
Cosmos 1763 Rocket 3.3 06:35:28 63° SSE 06:36:12 75° ESE 06:41:19 10° NNE
Cosmos 1437 Rocket 3.9 06:33:25 10° N 06:37:02 35° ENE 06:37:37 33° E
Cosmos 724 4.4 06:34:45 10° NW 06:40:45 56° WSW 06:41:42 50° SSW
Cosmos 2058 3.3 06:40:52 51° ESE 06:41:04 52° E 06:45:03 10° NNE
CZ-4 R/B 3.7 06:40:48 10° N 06:45:27 72° WNW 06:46:04 62° SW
Meteor 1-27 4.4 06:41:10 10° NNW 06:46:32 50° W 06:47:24 46° WSW
Cosmos 2297 4.0 06:41:44 10° NW 06:47:06 47° WSW 06:47:36 45° WSW
Cosmos 1953 Rocket 3.5 06:46:59 64° W 06:47:11 65° W 06:51:33 10° N
ATLAS 5 CENTAUR R/B 3.5 06:48:01 15° ESE 06:48:03 15° ESE 06:50:24 10° ENE
DELTA 2 R/B (1) 3.9 06:48:29 43° SSE 06:48:29 43° SSE 06:53:31 10° E
Cosmos 1892 3.8 06:53:15 34° WNW 06:53:15 34° WNW 06:56:35 10° N
USA 307 4.4 06:58:46 24° ESE 06:58:46 24° ESE 07:01:53 10° ENE
Helios 1A 3.1 06:59:24 54° W 06:59:24 54° W 07:03:25 10° NNW
Cosmos 1633 3.8 07:03:06 29° ESE 07:03:33 30° E 07:06:40 10° NNE
Helios 1B rocket 2.8 07:01:25 10° NNE 07:05:27 55° E 07:06:08 48° SE
USA 267 4.4 07:09:00 22° WSW 07:09:00 22° WSW 07:12:54 10° WNW
Cosmos 1842 Rocket 3.5 07:05:00 10° N 07:09:21 77° E 07:10:27 49° SSE
USA 308 3.9 07:13:55 32° SE 07:14:04 32° SE 07:17:52 10° ENE
NOSS 2-2 (D) 4.1 07:17:58 31° ESE 07:18:01 31° ESE 07:21:09 10° NE
Cosmos 990 Rocket 4.2 07:16:12 10° NNW 07:21:13 50° WSW 07:22:18 42° SW
Cosmos 841 Rocket 3.4 07:19:57 44° SSW 07:21:40 89° ESE 07:26:50 10° NNE
UNK 3.6 07:21:01 40° SSE 07:22:40 88° WSW 07:27:18 10° NNW
Cosmos 405 Rocket 3.9 07:24:00 27° WNW 07:24:02 27° WNW 07:27:14 10° NNW
Cosmos 540 Rocket 3.4 07:22:33 43° SW 07:24:12 74° WNW 07:29:19 10° NNE
Meteor 2-19 Rocket 4.5 07:21:38 31° S 07:24:47 77° E 07:30:55 10° N
Cosmos 921 Rocket 2.9 07:24:20 50° S 07:25:20 76° ESE 07:29:33 10° NNE
Cosmos 1943 3.3 07:23:13 37° SW 07:25:23 66° WNW 07:31:01 10° NNE
Cosmos 1898 Rocket 3.5 07:20:29 10° NNW 07:25:38 59° WSW 07:27:17 40° SSW
Cosmos 1825 3.4 07:27:43 28° W 07:27:50 28° WNW 07:31:09 10° NNW
Lacrosse 4 Rocket 3.7 07:25:27 10° N 07:28:47 23° NE 07:32:04 10° ESE
Cosmos 1937 Rocket 3.4 07:24:57 10° NNW 07:30:18 75° WSW 07:32:59 30° S
Cosmos 1603 4.0 07:28:43 33° SW 07:31:05 57° WNW 07:36:41 10° NNE
Cosmos 1943 Rocket 3.3 07:27:09 10° NW 07:31:31 25° WSW 07:31:43 25° WSW
SL-19 R/B 4.1 07:28:04 10° NNE 07:33:21 84° ESE 07:35:55 33° SSW
USA 305 3.2 07:32:36 44° S 07:33:27 52° SE 07:37:35 10° ENE
NPP 3.7 07:29:45 10° N 07:35:08 72° WNW 07:37:30 34° SSW
Resurs 1-4 Rocket 2.5 07:35:01 10° N 07:40:10 51° WNW 07:42:25 31° SW
Cosmos 1076 Rocket 3.5 07:41:45 42° SW 07:43:01 65° W 07:47:14 10° N
Cosmos 1814 Rocket 3.9 07:43:19 33° SSW 07:45:42 84° WNW 07:50:55 10° NNE
Cosmos 2151 3.0 07:45:23 33° S 07:47:13 77° E 07:51:26 10° N
Cosmos 1570 Rocket 3.9 07:45:18 33° SSW 07:47:44 81° WNW 07:52:59 10° NNE
CZ-2D R/B 2.7 07:44:38 10° N 07:49:33 43° WNW 07:51:52 27° WSW
Cosmos 2221 3.4 07:51:11 10° NNW 07:54:56 30° W 07:55:44 28° WSW
USA 306 2.8 07:53:56 36° SW 07:55:35 79° SE 07:59:49 10° NE
X-37B 1.9 07:53:27 14° WNW 07:55:54 39° N 07:58:55 10° ENE
Meteor 1-29 2.9 07:52:48 10° N 07:56:12 67° WNW 07:57:07 43° SW
NOSS 2-2 (E) 3.1 07:56:15 39° WSW 07:57:18 63° NW 08:00:57 10° NNE
ADEOS II 2.1 07:52:09 10° N 07:57:26 78° WNW 08:00:27 26° SSW
AQUA 4.2 07:53:07 10° N 07:57:44 50° WNW 07:59:56 28° SW
Cosmos 2208 Rocket 4.1 07:56:29 28° SSW 07:59:27 80° WNW 08:04:56 10° NNE
DELTA 2 DEB (DPAF) 4.1 08:03:00 16° SSE 08:06:32 85° WSW 08:11:00 10° NNW
Cosmos 2026 Rocket 4.1 08:02:46 23° SSW 08:06:42 64° W 08:12:59 10° N
SeaSat 1 2.7 08:02:01 10° NNE 08:06:56 63° ESE 08:10:13 21° S
ARIANE 5 R/B 3.7 08:04:11 10° NNE 08:08:47 36° E 08:13:21 10° SSE
Cosmos 1606 3.7 08:06:44 10° NNW 08:10:05 29° W 08:10:56 26° WSW
NOSS 2-2 (C) 3.2 08:08:55 31° WSW 08:10:18 60° NW 08:13:53 10° NNE
Cosmos 2369 Rocket 3.4 08:07:06 10° NW 08:11:32 24° W 08:13:05 21° SW
Cosmos 372 Rocket 4.1 08:08:43 10° NNW 08:13:49 53° WSW 08:18:05 15° S
Cosmos 1242 Rocket 3.8 08:11:30 10° NW 08:14:23 23° W 08:14:48 22° WSW
SL-16 R/B 3.3 08:11:30 22° SW 08:14:28 32° W 08:19:58 10° NW
USA 290 2.9 08:15:00 29° WSW 08:16:03 39° WNW 08:19:07 10° N
IDEFIX/ARIANE 42P 2.6 08:11:32 10° NNE 08:16:48 85° ESE 08:20:56 17° SSW
Cosmos 1656 Rocket 4.4 08:12:43 10° NW 08:17:45 33° WSW 08:20:52 19° SSW
Meteor 1-28 Rocket 3.3 08:18:35 20° S 08:20:59 58° W 08:24:45 10° NNW
USA 281 3.2 08:15:16 10° SSE 08:21:50 88° ENE 08:28:28 10° NNW
IRS-1C 4.5 08:16:59 10° NNE 08:22:17 64° ESE 08:27:23 11° S
CZ-4B R/B 4.3 08:18:25 10° NNE 08:23:33 49° E 08:28:34 10° S
CZ-4C R/B 3.6 08:19:50 10° SSE 08:23:43 26° ESE 08:28:08 10° NE
IRIDIUM 106 4.3 08:18:43 10° N 08:23:57 80° W 08:29:01 11° S
GPS 2-04 Rocket1 3.5 08:23:33 24° SSW 08:24:57 31° S 08:28:19 10° ESE
Cosmos 1437 4.0 08:24:17 10° NW 08:26:23 20° W 08:26:23 20° W
FALCON 9 DEB 4.4 08:24:35 10° NW 08:27:51 43° NNE 08:31:06 10° ESE
ATLAS 5 CENTAUR R/B 2.0 08:29:31 19° WSW 08:32:04 45° NW 08:36:16 10° NNE
DELTA 2 R/B (1) 3.5 08:29:13 12° WSW 08:34:27 74° S 08:40:00 10° E
USA 307 3.4 08:34:52 15° WSW 08:38:09 53° NW 08:42:19 10° NE
Cosmos 1766 Rocket 3.5 08:35:18 14° SSW 08:39:09 78° W 08:43:39 10° N
Okean 3 Rocket 3.5 08:36:47 13° SSW 08:40:40 77° W 08:45:04 10° N
Cosmos 2266 Rocket 4.1 08:35:32 10° S 08:41:39 75° E 08:47:43 10° N
ADEOS Rocket 3.9 08:35:05 10° SSW 08:42:02 41° W 08:48:31 10° NNW
Cosmos 2292 Rocket 3.8 08:42:37 18° SW 08:44:12 28° W 08:46:50 10° NNW
Cosmos 1408 Rocket 4.1 08:40:11 10° S 08:44:32 59° E 08:48:56 10° NNE
Cosmos 1151 Rocket 2.9 08:41:43 10° NNW 08:46:00 74° W 08:50:12 10° S
Meteor 2-3 Rocket 4.2 08:44:05 14° SW 08:48:34 43° WNW 08:53:53 10° N
IRS-1D 4.5 08:44:17 10° N 08:48:52 33° WNW 08:52:49 13° SW
USA 308 3.8 08:50:01 10° WSW 08:53:58 42° NNW 08:58:01 10° NE
Cosmos 1655 Rocket 4.0 08:49:19 10° SSW 08:55:31 75° W 09:01:46 10° N
Alouette 2 Rocket 3.4 08:55:03 10° NNW 08:58:32 53° W 09:02:37 10° S
Cosmos 1782 3.3 08:56:13 10° NNW 08:59:59 41° W 09:03:45 10° SSW
CZ-4C R/B 3.9 08:57:27 10° SSW 09:00:30 29° W 09:03:35 10° NW
IRS-P3 4.4 08:57:30 10° N 09:02:43 56° WNW 09:07:53 10° SSW
ASTEX 1 3.8 08:58:02 10° SSW 09:02:47 45° W 09:07:32 10° NNW
MSX 4.1 08:58:39 10° N 09:04:15 54° WNW 09:09:49 10° SW
ALOS 3.8 09:00:57 10° NNE 09:05:13 35° E 09:09:29 10° SSE
CZ-2C R/B 3.8 09:01:52 10° NNE 09:05:36 45° E 09:09:15 10° S
Lacrosse 4 Rocket 2.1 09:03:52 10° NW 09:07:28 31° WSW 09:11:01 10° S
COSMOS 2406 4.2 09:07:02 10° S 09:12:23 45° ESE 09:17:46 10° NE
USA 305 4.3 09:09:46 10° W 09:13:33 30° NNW 09:17:22 10° NE
BREEZE-M DEB (TANK) 3.2 09:11:48 10° NW 09:13:59 40° NNE 09:17:39 10° ESE
Cosmos 1812 2.8 09:11:17 10° NNW 09:15:04 60° W 09:18:50 10° S
Chandra Rocket (1) 4.4 09:14:46 10° SW 09:18:32 14° S 09:20:59 10° SSE
Cosmos 1271 Rocket 3.3 09:17:48 10° NNW 09:21:15 36° W 09:24:41 10° SSW
Cosmos 773 Rocket 4.3 09:19:53 10° SSW 09:25:09 76° ESE 09:30:28 10° NNE
Cosmos 2315 Rocket 4.0 09:19:24 10° N 09:25:37 79° W 09:31:48 10° S
